Regional Weather Roundup
Issued by NWS

Home | Current Version | Previous Version | Graphics & Text | Print | Product List | Glossary On
Versions: 1 2 3 4 5 6 7 8 9 10 11 12 13 14 15 16 17 18 19 20 21 22 23 24 25 26 27 28 29 30 31 32 33 34 35 36 37 38 39 40 41 42 43 44 45 46 47 48 49 50
000
ASUS43 KTOP 280659
RWRKS

WEATHER ROUNDUP FOR KANSAS
NATIONAL WEATHER SERVICE GOODLAND KS
200 AM CDT FRI AUG 28 2015

NOTE:  "FAIR" INDICATES FEW OR NO CLOUDS BELOW 12,000 FEET WITH NO
SIGNIFICANT WEATHER AND/OR OBSTRUCTIONS TO VISIBILITY.

KSZ001>006-013>018-027>032-041>047-280800-
NORTHWEST KANSAS

CITY           SKY/WX    TMP DP  RH WIND       PRES   REMARKS
GOODLAND       MOCLDY    65  60  84 NW9       30.03R
HAYS           MOCLDY    75  57  53 S17       29.88R
HILL CITY      PTCLDY    75  63  66 SW8       29.91R
RUSSELL        MOCLDY    75  66  73 S13       29.88F
$$

KSZ061>065-074>080-084>089-280800-
SOUTHWEST KANSAS

CITY           SKY/WX    TMP DP  RH WIND       PRES   REMARKS
DODGE CITY     MOCLDY    69  63  81 S13       29.96S
ELKHART          N/A     70  60  70 W5          N/A
GARDEN CITY    CLOUDY    70  63  78 SW5       29.97R
GREAT BEND     CLOUDY    73  64  73 S21G31    29.90F
LIBERAL        CLOUDY    73  61  64 W7        30.01R
PRATT          RAIN      72  70  94 S10       30.00F
$$

KSZ066>073-081>083-090>101-280800-
SOUTHEAST KANSAS

CITY           SKY/WX    TMP DP  RH WIND       PRES   REMARKS
CHANUTE        CLOUDY    68  64  87 S8        29.99S
COFFEYVILLE    MOCLDY    66  64  93 S5        29.99R
HUTCHINSON     CLOUDY    75  67  76 S18G28    29.96S
NEWTON         CLOUDY    73  63  68 SW17G25   29.98F
WICHITA INTL   CLOUDY    73  70  90 S6        29.97F
WICHITA JABRA  CLOUDY    72  68  87 S9        29.98S
WINFIELD       CLOUDY    72  66  81 SW5       30.00R
$$

KSZ007>012-019>026-033>040-048>060-102>105-280800-
NORTHEAST KANSAS

CITY           SKY/WX    TMP DP  RH WIND       PRES   REMARKS
CONCORDIA      CLOUDY    71  66  84 S22G31    29.88F
EMPORIA        CLOUDY    69  63  81 S8        29.98R
LAWRENCE       CLOUDY    69  66  90 SE6       29.97S
MANHATTAN      RAIN      72  69  90 S17       29.91F
OLATHE IND     CLOUDY    69  67  93 S7        30.00R
OLATHE EXE     CLOUDY    67  66  97 SE9       29.98F
SALINA         CLOUDY    76  68  76 SE9       29.92R
TOPEKA BILLARD CLOUDY    71  65  81 S5        29.97R
TOPEKA FORBES  CLOUDY    71  63  75 S9        29.97R
$$



USA.gov is the U.S. government's official web portal to all federal, state and local government web resources and services.